Voltar ao catálogo

COSMOS 397 DEB

AtivoLEO
NORAD 5015·DEBRIS·🇷🇺 Russia

Lançado Feb 25, 1971 de Baikonur Cosmodrome

Loading…

Próximas Passagens

TLE

Source: Space-Track
1 05015U 71015J   26228.27198156  .00000523  00000-0  17249-3 0  9990
2 05015  65.7052  74.3421 0641545 297.4230  56.2977 13.67533160673008

Acompanhe COSMOS 397 DEB em tempo real com AllMySat

Download on the App Store